Regional Weather Roundup
Issued by NWS

Home | Current Version | Previous Version | Graphics & Text | Print | Product List | Glossary Off
Versions: 1 2 3 4 5 6 7 8 9 10 11 12 13 14 15 16 17 18 19 20 21 22 23 24 25 26 27

000
ASUS45 KTFX 251410
RWRMT
MONTANA REGIONAL WEATHER ROUNDUP
NATIONAL WEATHER SERVICE GREAT FALLS MT
700 AM MST SUN FEB 25 2018

NOTE: "FAIR" INDICATES FEW OR NO CLOUDS BELOW 12000 FEET WITH NO
SIGNIFICANT WEATHER AND/OR OBSTRUCTIONS TO VISIBILITY.

MTZ001>007-043-251500-
WEST OF THE DIVIDE

CITY           SKY/WX    TMP DP  RH WIND       PRES   REMARKS
KALISPELL      LGT SNOW  26  23  88 S14       29.74F FOG     WCI  14
MISSOULA       CLOUDY    26  18  71 S5        29.83F
BUTTE          CLOUDY    20   5  52 SW8       29.75F WCI  10
MULLAN PASS    SNOW      19  14  81 MISG      29.66F VSB 1/2
ANACONDA         N/A     21   7  53 MISG      29.75F
DEER LODGE       N/A     19  10  68 NE5       29.77S
HAMILTON         N/A     28  12  50 MISG      29.85S
PLAINS           N/A     31  18  58 CALM      29.83F
RONAN            N/A     27  19  74 S14       29.81F WCI  15
$$

MTZ008-052>055-251500-
SOUTHWEST MONTANA

CITY           SKY/WX    TMP DP  RH WIND       PRES   REMARKS
BOZEMAN        CLOUDY    16   4  59 NE5       29.80R
DILLON         MOCLDY    14   4  64 SW17      29.82R WCI  -3
ENNIS          MOCLDY    19   5  53 S12G24    29.86R WCI   7
W YELLOWSTONE  LGT SNOW  10   5  79 SW18G25   29.80S WCI  -8
THREE FORKS      N/A     25   8  48 SW8       29.80R WCI  16
TWIN BRIDGES     N/A     18   3  51 CALM      29.83S
$$

MTZ009-010-012-014-046-048-049-054-251500-
EAST SLOPES AND CENTRAL MONTANA

CITY           SKY/WX    TMP DP  RH WIND       PRES   REMARKS
CUT BANK       FAIR      23  15  71 W43G53    29.46F WCI   3
GREAT FALLS    CLOUDY    25  14  63 SW29G40   29.59S WCI   8
MALMSTROM AFB  MOCLDY    26  13  57 SW23G29   29.61F WCI  12
HELENA         FAIR      27  11  51 W7        29.75S WCI  19
AUGUSTA          N/A     22  14  72 SW35      29.56S WCI   2
BOWMANS CRNR   MOCLDY    22  13  67 SW25      29.60F WCI   5
CHOTEAU          N/A     27  12  54 SW9G18    29.57S WCI  17
FAIRFIELD      CLOUDY    24  12  60 SW14      29.59R WCI  12
POWER          MOCLDY    23  15  70 W24       29.58R WCI   7
RAYNESFORD     MOCLDY    26  11  52 SW35G43   29.59S WCI   9
ULM            FRZ DRZL  25  17  72 W31       29.62F WCI   8
WHITE SULPHUR    N/A     21   5  49 VRB5      29.67R
$$

MTZ011-013-016-021-045-047-050-051-251500-
NORTH CENTRAL MONTANA

CITY           SKY/WX    TMP DP  RH WIND       PRES   REMARKS
HAVRE          MOCLDY    15  10  80 SW24      29.57F WCI  -4
LEWISTOWN      FAIR      17   9  70 SW22      29.60F WCI   0
N BAR RANCH    FAIR      21   3  45 W9G17     29.61S WCI  11
CHINOOK          N/A      1  -2  85 NE7       29.58F WCI -11
GEYSER         MOCLDY    20  10  63 NW17      29.58S WCI   6
STANFORD       MOCLDY    22  12  64 W31       29.57S WCI   4
WINIFRED       FAIR      16   7  67 W14       29.58S WCI   2
$$

MTZ017>020-022>027-061-062-251500-
NORTHEAST MONTANA

CITY           SKY/WX    TMP DP  RH WIND       PRES   REMARKS
GLASGOW        FAIR       0  -3  87 SE5       29.62F
GLENDIVE       FAIR      12   3  67 SW10      29.68  WCI  -1
JORDAN           N/A      5  -1  76 NW10      29.64S WCI -10
MALTA          CLEAR     -2  -6  84 W10       29.61S WCI -19
SIDNEY         FAIR      10   5  80 SW15      29.68R WCI  -7
WOLF POINT     FAIR       1  -3  83 SW7       29.67S WCI -12
PLENTYWOOD       N/A      9   7  92 NE3       29.59F
POPLAR           N/A      7   1  78 CALM      29.67S
SCOBEY           N/A      0  -7  72 W1        29.60S
$$

MTZ028>42-056>058-251500-
SOUTHCENTRAL AND SOUTHEAST MONTANA

CITY           SKY/WX    TMP DP  RH WIND       PRES   REMARKS
BAKER          FAIR      12   6  77 SW13      29.68R WCI  -3
BILLINGS       MOCLDY    20   8  60 W16       29.69F WCI   6
LIVINGSTON     FAIR      24   7  48 SW30G40   29.69S WCI   7
MILES CITY     FAIR       3   1  91 S7        29.70S WCI  -9
BIG TIMBER     PTCLDY    23  10  58 W37G44    29.67F HAZE    WCI   4
EKALAKA          N/A     17   9  71 SW14      29.67S WCI   3
FORSYTH          N/A     16  10  79 W3        29.70S
HARLOWTON      MOCLDY    21  10  62 W25G31    29.64F WCI   4
LAUREL           N/A     14   5  67 SW15      29.72S WCI  -1
$$

REGIONAL REPORTS...DAKOTAS

CITY           SKY/WX    TMP DP  RH WIND       PRES   REMARKS
WILLISTON      CLOUDY    12   7  80 SW9       29.65R WCI   0
MINOT          CLOUDY    19  12  74 W16       29.57R WCI   4
DICKINSON      FAIR      14   8  77 W18       29.62R WCI  -3
BEACH          FAIR      12   5  73 SW20G26   29.67S WCI  -6
CROSBY         MOCLDY    19  14  79 W13       29.59S WCI   7
TIOGA          CLOUDY    16  16 100 W12       29.60R WCI   3
BISMARCK       FAIR      22  16  78 W23       29.65R WCI   6
GRAND FORKS    FAIR       8   5  87 W12       29.53R WCI  -7
FARGO          CLOUDY    18  13  80 SW12      29.58R WCI   5
BUFFALO SD       N/A     13   8  81 W13       29.61S WCI  -2
RAPID CITY     FAIR      16   4  59 W12       29.75S WCI   3
$$

REGIONAL REPORTS...WYOMING/IDAHO/WASHINGTON

CITY           SKY/WX    TMP DP  RH WIND       PRES   REMARKS
GILLETTE       FAIR      15   5  64 SW15      29.72S WCI   0
SHERIDAN       FAIR      22   2  42 N3        29.72R
BUFFALO WY     FAIR      10  -3  55 NW6       29.69S WCI   0
CODY           FAIR      24   4  42 W14G37    29.72S WCI  12
YELLOWSTONE LA   N/A      4  -1  80 CALM      29.79R
IDAHO FALLS    CLOUDY    17  14  88 SW20G30   30.01R FOG     WCI   1
SALMON         FAIR      18  12  77 NW5       29.94F
BOISE          CLOUDY    22  17  81 SE6       30.14F WCI  14
SPOKANE        CLOUDY    30  27  88 S23G31    29.79F WCI  17
$$

REGIONAL REPORTS...ALBERTA

CITY           SKY/WX    TMP DP  RH WIND       PRES   REMARKS
CALGARY        MOCLDY    16   1  53 S10       29.32F WCI   3
CARDSTON         N/A     27   9  46 W10         N/A  WCI  17
EDMONTON       MOCLDY    21   5  49 SW9       29.27F WCI  11
FORT MCMURRAY  CLOUDY    14  10  85 E7        29.30F WCI   4
HIGH LEVEL     MOCLDY    -4  -8  84 VRB2      29.31R
LETHBRIDGE     CLOUDY    25  14  63 SW15      29.48S WCI  12
LLOYDMINSTER   CLOUDY     9   5  85 SW14      29.32F WCI  -8
MEDICINE HAT   MOCLDY    12   7  79 SW13G18   29.48F WCI  -3
MILK RIVER       N/A     23  14  68 W20         N/A  WCI   8
ONEFOUR          N/A     10   3  72 SE3         N/A
PEACE RIVER    FLURRIES  18  14  86 N6        29.19S WCI   9
PINCHER CREEK  CLOUDY    23  16  74 W33G41    29.45F WCI   5
WATERTON GATE    N/A     25  12  58 SW41G58     N/A  WCI   5
$$

REGIONAL REPORTS...SASKATCHEWAN

CITY           SKY/WX    TMP DP  RH WIND       PRES   REMARKS
CORONACH         N/A      5   1  85 SW10        N/A  WCI -10
CYPRESS HILLS    N/A     14   1  57 W5          N/A
ESTEVAN        FLURRIES  19  14  79 W10       29.57R WCI   8
MOOSE JAW        N/A      9   5  85 NE1         N/A
PRINCE ALBERT  MOCLDY     1  -2  85 NW3       29.52F
REGINA         PTCLDY     7   5  92 W2        29.55R
ROCKGLEN         N/A      5   1  85 W13         N/A  WCI -12
SASKATOON      PTCLDY     5   3  92 S8        29.50F WCI  -8
VAL MARIE        N/A     -6  -9  84 S5          N/A
$$




USA.gov is the U.S. government's official web portal to all federal, state and local government web resources and services.